Regional Weather Roundup
Issued by NWS

Home | Current Version | Previous Version | Text Only | Print | Product List | Glossary Off
Versions: 1 2 3 4 5 6 7 8 9 10 11 12 13 14 15 16 17 18 19 20 21 22 23 24 25 26 27 28 29 30 31 32 33 34 35 36 37 38 39 40 41 42 43 44 45 46 47 48 49 50

000
ASUS43 KIND 310709
RWRIN

WEATHER ROUNDUP FOR INDIANA
NATIONAL WEATHER SERVICE INDIANAPOLIS IN
300 AM EDT THU JUL 31 2014

NOTE: "FAIR" INDICATES FEW OR NO CLOUDS BELOW 12,000 FEET WITH NO
SIGNIFICANT WEATHER AND/OR OBSTRUCTIONS TO VISIBILITY.

* - STATION DOES NOT REPORT WEATHER SUCH AS PRECIPITATION OR FOG.

+ - STATION NOT QUALITY CONTROLLED BY THE NATIONAL WEATHER SERVICE.
    USE DATA WITH CAUTION...ESPECIALLY DEWPOINT AND RELATIVE
    HUMIDITY OBSERVATIONS.

INZ001>003-010>013-019-020-310800-
NORTHWEST INDIANA

CITY           SKY/WX    TMP DP  RH WIND       PRES   REMARKS
GARY /AIRPORT/ CLEAR     58  56  94 CALM      30.05S FOG
KNOX *+          N/A     53  51  94 CALM      30.04S VSB<1/4
LA PORTE +     MOCLDY    54  54 100 CALM      30.05S FOG
MICHIGAN CITY+   N/A     54  54 100 CALM      30.04F FOG
MONTICELLO +   CLEAR     57  57  98 CALM      30.04S
RENSSELAER +   CLEAR     55  55 100 CALM      30.05S FOG
VALPARAISO     CLEAR     57  56  96 CALM      30.05S

$$

LMZ046-743>745-310800-
SOUTHERN LAKE MICHIGAN

STATION/POSITION TIME  TEMP WIND        PRES
                       AIR  DIR/SP/G
                 (UTC) (F)  (DEG/KT/KT) (MB)
MICHIGAN CITY    0700   63  140/  5/  6   N/A

$$

INZ004-005-014>016-021>024-310800-
NORTH CENTRAL INDIANA

CITY           SKY/WX    TMP DP  RH WIND       PRES   REMARKS
GOSHEN         CLEAR     57  55  93 CALM      30.04S
LOGANSPORT +   CLEAR     55  54  94 CALM      30.05S FOG
PERU/GRISSOM   CLEAR     56  56 100 SW3       30.04S
ROCHESTER +    CLEAR     59  59 100 CALM      30.05S FOG
SOUTH BEND     CLEAR     57  52  83 CALM      30.04F
WARSAW +       MOCLDY    57  55  94 CALM      30.05S

$$

INZ006>009-017-018-025>027-310800-
NORTHEAST INDIANA

CITY           SKY/WX    TMP DP  RH WIND       PRES   REMARKS
ANGOLA *+      CLOUDY    52  52 100 CALM      30.04S VSB 0
AUBURN +       CLEAR     57  54  88 CALM      30.05S
FORT WAYNE     PTCLDY    60  56  86 W5        30.05S
HUNTINGTON +   MOCLDY    59  59  99 CALM      30.04S FOG

$$

INZ028-029-035-036-043>045-051>053-310800-
WEST CENTRAL INDIANA

CITY           SKY/WX    TMP DP  RH WIND       PRES   REMARKS
GREENCASTLE +  CLEAR     59  59 100 CALM      30.07F
LAFAYETTE      CLEAR     59  59 100 CALM      30.04F FOG
TERRE HAUTE    CLEAR     58  56  93 CALM      30.06F

$$

INZ030>032-037>040-046>048-054>057-064-065-310800-
CENTRAL INDIANA

CITY           SKY/WX    TMP DP  RH WIND       PRES   REMARKS
CP ATTERBURY + CLEAR     59  57  94 CALM      30.07F FOG
INDIANAPOLIS   PTCLDY    61  60  97 SW6       30.05S
-EAGLE CREEK   CLEAR     63  59  87 SW3       30.05F
KOKOMO *+      CLEAR     57  54  88 S3        30.05S
MARION +       CLEAR     55  54  97 CALM      30.05F
MT COMFORT *+  CLEAR     61 N/A N/A CALM      30.06F
SHELBYVILLE    CLEAR     62  59  90 S3        30.06S
ZIONSVILLE +   CLEAR     61  58  89 CALM      30.06F

$$

INZ033-034-041-042-049-050-058-059-310800-
EAST CENTRAL INDIANA

CITY           SKY/WX    TMP DP  RH WIND       PRES   REMARKS
MUNCIE         CLEAR     63  59  87 SW7       30.05S

$$

INZ060-061-067>069-081>083-085>088-310800-
SOUTHWEST INDIANA

CITY           SKY/WX    TMP DP  RH WIND       PRES   REMARKS
EVANSVILLE     PTCLDY    65  60  84 CALM      30.09S
WASHINGTON +   CLEAR     64  61  90 CALM      30.06S

$$

INZ062-063-066-070>080-084-089>092-310800-
SOUTH CENTRAL AND SOUTHEAST INDIANA

CITY           SKY/WX    TMP DP  RH WIND       PRES   REMARKS
BLOOMINGTON    CLEAR     61  58  90 CALM      30.07F

$$



USA.gov is the U.S. government's official web portal to all federal, state and local government web resources and services.